Miscellaneous Local Product
Issued by NWS Hastings, NE

Home | Current Version | Previous Version | Graphics & Text | Print | Product List | Glossary On
Versions: 1 2 3 4 5 6 7 8 9 10 11 12 13 14 15 16 17 18 19 20 21 22 23 24 25 26 27 28 29 30 31 32 33 34 35 36 37 38 39 40 41 42 43 44 45 46 47 48 49 50
953
AXUS43 KGID 110102
MISGRI

GID CWA HOURLY WEATHER ROUNDUP
NATIONAL WEATHER SERVICE HASTINGS NE
700 PM CST WED FEB 10 2016

NOTE: "FAIR" INDICATES FEW OR NO CLOUDS BELOW 12,000 FEET WITH NO
SIGNIFICANT WEATHER AND/OR OBSTRUCTIONS TO VISIBILITY.

...SOUTH CENTRAL NEBRASKA...

CITY           SKY/WX    TMP DP  RH WIND       PRES   REMARKS
GRAND ISLAND   CLOUDY    35  30  82 NE16      29.98R WCI  25
HASTINGS       CLOUDY    39  31  72 N5        29.94R
KEARNEY        CLOUDY    43  32  65 NW8       29.96R
ORD            CLOUDY    37  30  75 N3        29.99R
YORK           CLEAR     32  32 100 NE9       29.99R WCI  24
AURORA         CLEAR     34  31  90 NE15      29.97R WCI  24
LEXINGTON      CLOUDY    38  31  76 NW8       29.98R WCI  32
HOLDREGE       CLOUDY    41  31  68 NW7       29.95R
HEBRON         CLOUDY    38  32  79 CALM      29.96R

...NEBRASKA PANHANDLE...

CITY           SKY/WX    TMP DP  RH WIND       PRES   REMARKS
CHADRON        PTCLDY    46  25  43 N6        30.05R
ALLIANCE       CLOUDY    44  31  60 NW13      30.04R
SCOTTSBLUFF    CLOUDY    42  28  57 NW9       30.08R
SIDNEY         CLOUDY    39  29  67 NW14      30.08R WCI  31

...WESTERN AND NORTH CENTRAL NEBRASKA...

CITY           SKY/WX    TMP DP  RH WIND       PRES   REMARKS
VALENTINE      CLEAR     38  30  73 NE12      30.04R WCI  30
AINSWORTH      CLEAR     38  31  73 N15       30.03R WCI  30
ONEILL         CLOUDY    32  26  80 NE10      30.02R WCI  24
BROKEN BOW     CLOUDY    42  29  59 N12       29.97R
IMPERIAL       CLOUDY    44  28  53 W12       30.02R
NORTH PLATTE   CLOUDY    39  31  72 W6        29.98R WCI  35
MCCOOK         CLOUDY    44  30  57 W13       30.00R

...EASTERN NEBRASKA...

CITY           SKY/WX    TMP DP  RH WIND       PRES   REMARKS
NORFOLK        CLOUDY    30  23  75 NE12      30.03R WCI  20
SO SIOUX CITY  CLOUDY    21  14  74 E10       30.11R WCI  10
TEKAMAH        CLOUDY    22  17  81 N14       30.08R WCI   9
COLUMBUS       CLOUDY    28  18  64 NE7       30.02R WCI  21
ALBION         CLOUDY    33  28  81 N5        30.02R WCI  28
OMAHA EPPLEY   PTCLDY    26  21  81 NE8       30.05R WCI  18
OFFUTT AFB     CLEAR     29  25  86 NE10      30.02R WCI  19
MILLARD        CLEAR     35  24  63 E3        30.00R
LINCOLN        CLEAR     31  26  82 N10       30.01R WCI  22
NEBRASKA CITY  CLOUDY    34  26  71 NE5       29.99R WCI  30
BEATRICE       CLOUDY    38  30  74 NE6       29.98R WCI  33
FALLS CITY     CLEAR     36  22  56 E7        29.97R WCI  30

...NORTHERN KANSAS...

CITY           SKY/WX    TMP DP  RH WIND       PRES   REMARKS
GOODLAND       CLOUDY    41  29  62 NW9       30.06R
HILL CITY      CLEAR     45  31  58 NW12      29.98R
NORTON         CLEAR     41  27  56 W14       29.97
PHILLIPSBURG   CLEAR     43  32  65 NW12      29.97R
SMITH CENTER   CLEAR     39  30  70 CALM      29.96R
BELOIT         CLEAR     46  32  57 W3        29.96R
HAYS           CLEAR     43  27  52 W10       29.98R
RUSSELL        CLEAR     44  30  57 W9G18     29.95R
CONCORDIA      CLEAR     45  31  58 W7        29.95R
SALINA         CLEAR     48  30  49 NW8       29.95R
TOPEKA         CLEAR     47  26  44 E9        29.93R



USA.gov is the U.S. government's official web portal to all federal, state and local government web resources and services.